Regional Weather Roundup
Issued by NWS

Home | Current Version | Previous Version | Graphics & Text | Print | Product List | Glossary On
Versions: 1 2 3 4 5 6 7 8 9 10 11 12 13 14 15 16 17 18 19 20 21 22 23 24 25 26 27 28 29 30 31 32 33 34 35 36 37 38 39 40 41 42 43 44 45 46 47 48 49 50
000
ASUS43 KBIS 310602
RWRND

NORTH DAKOTA REGIONAL WEATHER ROUNDUP
NATIONAL WEATHER SERVICE BISMARCK ND
100 AM CDT FRI JUL 31 2015

NOTE: "FAIR" INDICATES FEW OR NO CLOUDS BELOW 12,000 FEET WITH NO
SIGNIFICANT WEATHER AND/OR OBSTRUCTIONS TO VISIBILITY.


NDZ001>003-009>011-017-310700-
NORTHWEST NORTH DAKOTA

CITY           SKY/WX    TMP DP  RH WIND       PRES   REMARKS
WILLISTON      CLEAR     57  50  77 N3        30.16S
6HR MIN TEMP:  57; 6HR MAX TEMP:  84;

MINOT          CLEAR     59  49  69 SW8       30.12S
MINOT AFB      CLEAR     54  52  95 W9        30.11S
$$

NDZ018>021-031>035-040>046-310700-
SOUTHWEST NORTH DAKOTA

CITY           SKY/WX    TMP DP  RH WIND       PRES   REMARKS
BISMARCK       CLEAR     62  53  72 CALM      30.16R
6HR MIN TEMP:  59; 6HR MAX TEMP:  83;

DICKINSON      CLEAR     57  47  69 SE3       30.20R
GARRISON         N/A     57  52  83 CALM      30.15S
6HR MIN TEMP:  55; 6HR MAX TEMP:  78;

HETTINGER ARPT CLEAR     51  47  86 CALM      30.22R
$$

NDZ004>008-012>016-024-026-027-054-310700-
NORTHEAST NORTH DAKOTA

CITY           SKY/WX    TMP DP  RH WIND       PRES   REMARKS
GRAND FORKS    CLEAR     58  52  80 W8        30.01F
GRND FRKS AFB  CLEAR     60  52  75 NW8       30.03S
DEVILS LAKE    CLEAR     61  48  63 W9        30.07S
$$

NDZ022-023-025-028>030-036>039-047>053-310700-
SOUTHEAST NORTH DAKOTA

CITY           SKY/WX    TMP DP  RH WIND       PRES   REMARKS
FARGO          CLEAR     60  54  80 W9        30.05S
6HR MIN TEMP:  60; 6HR MAX TEMP:  82;

JAMESTOWN      CLEAR     62  51  67 NW8       30.11R
$$




USA.gov is the U.S. government's official web portal to all federal, state and local government web resources and services.